Tracking 21076 objects as of 10-Aug-2020
HD Live streaming from Space Station
objects crossing your sky now
Track the most recent launched group of Starlink satellites

DMSP 5D-2 F11 DEB

Track DMSP 5D-2 F11 DEB now!
10-day predictions


NORAD ID: 28327
Int'l Code: 1991-082AQ
Perigee: 786.3 km
Apogee: 831.4 km
Inclination: 98.8 °
Period: 100.9 minutes
Semi major axis: 7179 km
RCS: 0.0132 m2 (small)
Launch date: November 28, 1991
Source: United States (US)
Launch site: AIR FORCE WESTERN TEST RANGE (AFWTR)

Note: This is SATELLITE DEBRIS
aabbcc
Your satellite tracking list
Your tracking list is empty




NASA's NSSDC Master Catalog

Two Line Element Set (TLE):
1 28327U 91082AQ  20223.34043147 +.00000540 +00000-0 +23920-3 0  9995
2 28327 098.8156 259.0934 0031394 146.0776 271.0904 14.27013917370192
Source of the keplerian elements: AFSPC